[[{"header":{"parameterUnit":"m.s-1","parameterCategory":1,"la1":30.2991,"la2":30.254,"lo1":-89.0895,"lo2":-89.0444,"dy":0.0017,"dx":0.0017,"nx":28,"ny":28,"refTime":"2024-06-03T03:00:00:Z","depth":0,"parameterNumber":2,"parameterNumberName":"U-component_of_WINDS"},"data":[0,0,0,0,0,0,0,0,0,0,0,0,0,0,0,0,0,0,0,0,0,0,0,0,0,0,0,0,0,0,0,0,0,0,0,0,0,0,0,0,0,0,0,0,0,0,0,0,0,0,0,0,0,0,0,0,0,0,-1.11,-1.1101,0,-1.1219,-1.1221,-1.1222,-1.128,-1.128,-1.128,-1.128,-1.1405,-1.1408,-1.1412,0,0,0,0,0,0,0,0,0,0,0,0,0,-1.0925,-1.0928,-1.11,-1.1101,-1.1103,-1.1219,-1.1221,-1.1222,-1.128,-1.128,-1.128,-1.128,-1.1404,-1.1408,-1.1412,0,0,0,0,0,0,0,0,0,0,0,0,0,-1.1019,-1.0929,-1.11,-1.1145,-1.1151,-1.1219,-1.1221,-1.1223,-1.128,-1.128,-1.128,-1.128,-1.1403,-1.1408,-1.1413,-1.1445,0,0,-1.1428,-1.143,0,0,0,0,0,0,0,0,-1.1013,-1.1025,-1.1137,-1.1142,-1.1148,-1.1235,-1.1205,-1.1297,-1.128,-1.1231,-1.128,-1.128,-1.1349,-1.1358,-1.1381,-1.1451,-1.1456,-1.1429,-1.1432,-1.1434,-1.1435,0,0,0,0,0,0,0,-1.1007,-1.102,-1.1147,-1.1139,-1.1146,-1.1161,-1.1174,-1.1223,-1.1289,-1.1235,-1.124,-1.1253,-1.1352,-1.1376,-1.1384,-1.1458,-1.1428,-1.1433,-1.1436,-1.1438,-1.1562,-1.1562,0,0,0,0,0,0,-1.0992,-1.1014,-1.1144,-1.1151,-1.1079,-1.1164,-1.1179,-1.1207,-1.1288,-1.1301,-1.1253,-1.1255,-1.1367,-1.1378,-1.1389,-1.1433,-1.1434,-1.1439,-1.1441,-1.1562,-1.1562,-1.1562,0,0,0,0,0,0,-1.0988,-1.1003,-1.1139,-1.1084,-1.1102,-1.1167,-1.1198,-1.1209,-1.1234,-1.1302,-1.1314,-1.1265,-1.1368,-1.1382,-1.1431,-1.1438,-1.1441,-1.1445,-1.1561,-1.1562,-1.1562,-1.152,0,0,0,0,0,0,-1.0983,-1.1001,-1.1014,-1.1084,-1.1105,-1.1177,-1.1199,-1.1212,-1.1242,-1.1246,-1.1316,-1.1328,-1.1369,-1.1423,-1.1436,-1.1445,-1.1449,-1.1561,-1.1562,-1.1562,-1.1521,-1.1519,-1.1517,0,0,0,0,0,-1.0977,-1.0998,-1.1014,-1.1029,-1.1121,-1.1178,-1.119,-1.1235,-1.1242,-1.1255,-1.1299,-1.1326,-1.1435,-1.1427,-1.1442,-1.1453,-1.1561,-1.1561,-1.1562,-1.1522,-1.1519,-1.1517,0,0,0,0,0,0,-1.0928,-1.1008,-1.1027,-1.1071,-1.1117,-1.1187,-1.1205,-1.1231,-1.1277,-1.1279,-1.1334,-1.135,-1.1394,-1.1429,-1.1419,-1.1489,-1.15,-1.1504,-1.1465,-1.1463,-1.1461,-1.1452,-1.1454,0,0,0,0,0,-1.0922,-1.096,-1.1028,-1.1061,-1.1083,-1.114,-1.1166,-1.1197,-1.1247,-1.1267,-1.1315,-1.1364,-1.1409,-1.1438,-1.1484,-1.1526,-1.1543,-1.1541,-1.1539,-1.1537,-1.154,-1.1566,-1.1566,-1.1564,-1.1564,-1.1564,0,0,-1.0911,-1.0959,-1.098,-1.1052,-1.1091,-1.113,-1.1156,-1.1196,-1.1226,-1.1274,-1.1323,-1.1359,-1.1418,-1.1464,-1.1486,-1.1494,-1.1544,-1.1538,-1.1536,-1.154,-1.1566,-1.1566,-1.1566,-1.1564,-1.1564,-1.1564,0,0,-1.0911,-1.0951,-1.0982,-1.1021,-1.108,-1.1118,-1.1125,-1.1192,-1.1217,-1.1267,-1.1304,-1.1341,-1.1418,-1.1458,-1.1488,-1.1503,-1.1529,-1.1516,-1.1506,-1.153,-1.1531,-1.1531,-1.1537,-1.1538,-1.1518,-1.1518,-1.1518,0,-1.089,-1.0949,-1.0996,-1.1034,-1.1065,-1.1108,-1.1141,-1.1177,-1.1248,-1.1269,-1.1276,-1.1373,-1.1416,-1.1472,-1.1476,-1.1499,-1.151,-1.1509,-1.1527,-1.1528,-1.1529,-1.1535,-1.1537,-1.1516,-1.1517,-1.1517,-1.1517,0,-1.0921,-1.0961,-1.098,-1.1046,-1.1079,-1.1115,-1.1167,-1.1196,-1.1223,-1.1261,-1.1311,-1.1363,-1.142,-1.1436,-1.1464,-1.1497,-1.1499,-1.1516,-1.1528,-1.1526,-1.1533,-1.1536,-1.1514,-1.1514,-1.1515,-1.1515,0,0,-1.0894,-1.0985,-1.0991,-1.1021,-1.1089,-1.1122,-1.116,-1.1215,-1.1238,-1.1286,-1.1319,-1.1383,-1.1399,-1.1433,-1.1466,-1.1488,-1.1497,-1.1502,-1.1504,-1.1499,-1.1536,-1.1524,-1.1526,-1.1514,-1.1515,-1.1515,-1.1532,0,-1.0903,-1.0972,-1.1014,-1.1066,-1.1104,-1.1147,-1.118,-1.1226,-1.1262,-1.13,-1.1341,-1.1385,-1.1402,-1.1423,-1.1446,-1.149,-1.1505,-1.149,-1.1547,-1.1549,-1.1532,-1.1529,-1.1516,-1.1529,-1.1535,-1.1535,-1.1535,0,-1.0924,-1.0969,-1.1024,-1.1087,-1.1105,-1.1134,-1.1188,-1.1224,-1.1277,-1.1302,-1.134,-1.1373,-1.1416,-1.1424,-1.1485,-1.1473,-1.15,-1.1525,-1.1527,-1.1534,-1.1542,-1.1537,-1.1534,-1.1536,-1.154,-1.154,-1.1539,0,-1.0899,-1.0974,-1.1016,-1.1041,-1.1117,-1.1136,-1.1168,-1.1221,-1.1252,-1.1299,-1.1319,-1.1371,-1.14,-1.144,-1.1487,-1.1488,-1.1542,-1.1555,-1.1565,-1.1564,-1.1575,-1.1574,-1.1577,-1.1591,-1.1591,-1.1591,-1.1591,0,-1.0906,-1.0938,-1.1006,-1.1032,-1.107,-1.1119,-1.1155,-1.1192,-1.1238,-1.1273,-1.1314,-1.1346,-1.1405,-1.1445,-1.1482,-1.1527,-1.1539,-1.1562,-1.1571,-1.1558,-1.1555,-1.1577,-1.1577,-1.1591,-1.1591,-1.1591,-1.1591,0,-1.0884,-1.0931,-1.0981,-1.1048,-1.1065,-1.109,-1.1148,-1.1176,-1.1214,-1.1257,-1.1271,-1.133,-1.138,-1.143,-1.1497,-1.1522,-1.1565,-1.1578,-1.1547,-1.1552,-1.156,-1.1559,-1.1577,-1.1582,-1.1592,-1.1592,-1.1591,0,-1.0886,-1.0911,-1.098,-1.1006,-1.1037,-1.1078,-1.1109,-1.1158,-1.1189,-1.1252,-1.1272,-1.1324,-1.1368,-1.1444,-1.1495,-1.1546,-1.1561,-1.1564,-1.1569,-1.1555,-1.1562,-1.156,-1.1563,-1.1562,-1.1561,-1.1561,-1.1561,0,-1.0883,-1.0905,-1.0947,-1.0997,-1.1032,-1.1074,-1.1118,-1.1137,-1.1196,-1.1228,-1.1278,-1.1312,-1.138,-1.1431,-1.1488,-1.1523,-1.1552,-1.1559,-1.1564,-1.1551,-1.1532,-1.1543,-1.1542,-1.1558,-1.1559,-1.1559,-1.1559,-1.1559,-1.0874,-1.0898,-1.0951,-1.0996,-1.1034,-1.1074,-1.1103,-1.1145,-1.1187,-1.1245,-1.1272,-1.1322,-1.1376,-1.1455,-1.149,-1.1531,-1.1539,-1.1546,-1.1548,-1.155,-1.1547,-1.1525,-1.1541,-1.1541,-1.1542,-1.1542,-1.1542,0,-1.0874,-1.0909,-1.095,-1.101,-1.1046,-1.1068,-1.1118,-1.1147,-1.119,-1.1237,-1.1279,-1.1337,-1.1387,-1.1441,-1.1494,-1.1517,-1.1531,-1.1529,-1.1528,-1.1536,-1.1536,-1.1526,-1.1516,-1.1516,-1.1516,-1.1516,-1.1516,-1.1516,-1.0878,-1.0921,-1.0949,-1.1011,-1.1048,-1.1096,-1.1122,-1.116,-1.1197,-1.126,-1.1301,-1.1335,-1.1385,-1.1443,-1.149,-1.1505,-1.1523,-1.1517,-1.1535,-1.1534,-1.1536,-1.1538,-1.1529,-1.152,-1.152,-1.1532,-1.1532,-1.1532]},{"header":{"parameterUnit":"m.s-1","parameterCategory":1,"la1":30.2991,"la2":30.254,"lo1":-89.0895,"lo2":-89.0444,"dy":0.0017,"dx":0.0017,"nx":28,"ny":28,"refTime":"2024-06-03T03:00:00:Z","depth":0,"parameterNumber":3,"parameterNumberName":"V-component_of_WINDS"},"data":[0,0,0,0,0,0,0,0,0,0,0,0,0,0,0,0,0,0,0,0,0,0,0,0,0,0,0,0,0,0,0,0,0,0,0,0,0,0,0,0,0,0,0,0,0,0,0,0,0,0,0,0,0,0,0,0,0,0,2.6787,2.6787,0,2.6834,2.6835,2.6835,2.6788,2.6786,2.6785,2.6783,2.6829,2.6832,2.6835,0,0,0,0,0,0,0,0,0,0,0,0,0,2.6652,2.6654,2.6787,2.6787,2.6788,2.6834,2.6835,2.6836,2.6789,2.6786,2.6784,2.6782,2.6828,2.6832,2.6835,0,0,0,0,0,0,0,0,0,0,0,0,0,2.6706,2.6655,2.6787,2.677,2.6769,2.6834,2.6835,2.6836,2.6789,2.6786,2.6784,2.6781,2.6827,2.6831,2.6836,2.6919,0,0,2.6849,2.6851,0,0,0,0,0,0,0,0,2.6703,2.6711,2.6772,2.6771,2.677,2.6803,2.6804,2.6864,2.679,2.6781,2.6783,2.678,2.6822,2.6827,2.6842,2.6921,2.6923,2.685,2.6852,2.6854,2.6856,0,0,0,0,0,0,0,2.6699,2.6709,2.6805,2.6773,2.6772,2.6759,2.6764,2.6815,2.6817,2.6782,2.6779,2.6785,2.6821,2.6838,2.6843,2.6924,2.685,2.6854,2.6856,2.6858,2.7071,2.7074,0,0,0,0,0,0,2.6698,2.6706,2.6804,2.6807,2.6729,2.6764,2.6769,2.6795,2.6816,2.6817,2.6787,2.6783,2.6832,2.6838,2.6844,2.6942,2.6854,2.6859,2.6861,2.7068,2.7072,2.7075,0,0,0,0,0,0,2.6695,2.6707,2.6802,2.6755,2.6767,2.6769,2.6799,2.6797,2.6814,2.682,2.682,2.6804,2.683,2.6838,2.69,2.6942,2.6861,2.6865,2.7065,2.7069,2.7073,2.7138,0,0,0,0,0,0,2.6691,2.6706,2.6739,2.6757,2.6769,2.6859,2.6801,2.68,2.6822,2.6816,2.6836,2.6837,2.6828,2.6894,2.6905,2.6947,2.6868,2.7061,2.7067,2.7072,2.7132,2.7144,2.7154,0,0,0,0,0,2.6687,2.6755,2.6741,2.6753,2.681,2.6861,2.6868,2.6858,2.6826,2.6857,2.6861,2.6836,2.6936,2.6901,2.6913,2.6957,2.7058,2.7065,2.7071,2.7127,2.7141,2.7154,0,0,0,0,0,0,2.6741,2.6757,2.6741,2.6817,2.6838,2.6853,2.6893,2.6874,2.6904,2.6897,2.6883,2.6887,2.6953,2.6961,2.6921,2.7037,2.6992,2.7001,2.703,2.7044,2.7055,2.7051,2.6872,0,0,0,0,0,2.6762,2.6803,2.6814,2.688,2.6892,2.6891,2.6913,2.6903,2.6924,2.6932,2.694,2.6961,2.6997,2.7021,2.7054,2.7133,2.7136,2.7169,2.718,2.7189,2.7197,2.7238,2.7252,2.7097,2.7097,2.7097,0,0,2.6805,2.6819,2.6846,2.6891,2.6907,2.6948,2.6898,2.6945,2.6975,2.6939,2.6998,2.7005,2.7027,2.7097,2.7129,2.7106,2.7241,2.7198,2.7205,2.7208,2.7246,2.7261,2.7274,2.7102,2.7101,2.71,0,0,2.6906,2.6921,2.6977,2.6993,2.7017,2.7015,2.7029,2.7047,2.705,2.7109,2.7082,2.7118,2.718,2.7197,2.7213,2.7318,2.7295,2.733,2.7388,2.7427,2.744,2.745,2.7487,2.75,2.7338,2.7338,2.7338,0,2.6957,2.7019,2.7008,2.7056,2.7076,2.7046,2.7101,2.7117,2.715,2.7164,2.7139,2.7216,2.7229,2.7302,2.7327,2.7342,2.7356,2.7327,2.7439,2.745,2.7459,2.7494,2.7508,2.7342,2.7341,2.7341,2.7341,0,2.708,2.7124,2.7166,2.7199,2.7224,2.7276,2.7271,2.7297,2.7285,2.7286,2.7346,2.736,2.7395,2.7412,2.7401,2.7483,2.7468,2.7441,2.7395,2.7478,2.751,2.7523,2.7348,2.7346,2.7345,2.7344,0,0,2.7216,2.7242,2.7257,2.7271,2.7294,2.7327,2.7377,2.7412,2.7434,2.7458,2.7498,2.7552,2.7527,2.7545,2.7535,2.757,2.7651,2.7539,2.7539,2.7558,2.7741,2.7761,2.7776,2.7637,2.7639,2.7641,2.7739,0,2.7316,2.7403,2.7394,2.7476,2.7515,2.7486,2.7529,2.7548,2.755,2.7583,2.7585,2.7622,2.7587,2.7598,2.7631,2.7634,2.7688,2.7627,2.7672,2.7674,2.7667,2.7793,2.7815,2.7906,2.7752,2.7754,2.7755,0,2.7444,2.7473,2.7559,2.7575,2.7591,2.7631,2.7661,2.7693,2.7713,2.7712,2.7733,2.7716,2.7765,2.7718,2.7784,2.7743,2.7761,2.7765,2.7768,2.7771,2.7719,2.7799,2.7936,2.7949,2.7775,2.7774,2.7772,0,2.7533,2.7593,2.7652,2.7665,2.7686,2.7714,2.7723,2.774,2.7762,2.7788,2.7801,2.7833,2.785,2.7875,2.7867,2.7834,2.7934,2.7887,2.7933,2.7933,2.7955,2.7953,2.8096,2.7968,2.7968,2.7968,2.7968,0,2.7645,2.7699,2.7692,2.7729,2.7787,2.7776,2.7834,2.784,2.7855,2.7891,2.7868,2.7902,2.789,2.7923,2.7917,2.7972,2.798,2.7979,2.7977,2.7981,2.7981,2.7992,2.7985,2.7972,2.7971,2.797,2.7969,0,2.7754,2.7752,2.7814,2.7829,2.7834,2.7876,2.7888,2.7921,2.7921,2.7967,2.7977,2.7977,2.8015,2.801,2.8052,2.8047,2.8115,2.8105,2.8109,2.8106,2.8152,2.8148,2.8306,2.8325,2.8186,2.8188,2.8189,0,2.7825,2.7866,2.7885,2.7907,2.7919,2.7956,2.7978,2.7967,2.799,2.8015,2.8045,2.8081,2.8109,2.817,2.8173,2.8205,2.8195,2.8248,2.8199,2.8202,2.8194,2.8192,2.8195,2.8257,2.8259,2.826,2.8261,0,2.7952,2.7948,2.798,2.8012,2.8039,2.8063,2.8085,2.8105,2.8096,2.8123,2.8161,2.8183,2.8226,2.8261,2.829,2.8299,2.8279,2.8277,2.8289,2.8293,2.8293,2.8292,2.8134,2.8273,2.8272,2.8271,2.827,2.827,2.8043,2.8077,2.8095,2.8132,2.8147,2.8168,2.82,2.8204,2.8236,2.827,2.8262,2.8305,2.8322,2.836,2.8371,2.8404,2.8384,2.8402,2.8407,2.8411,2.8416,2.8288,2.841,2.8409,2.8409,2.8409,2.8408,0,2.8167,2.8177,2.8211,2.8242,2.827,2.8249,2.8272,2.8297,2.8335,2.8353,2.8381,2.8425,2.8458,2.8464,2.8496,2.8521,2.8512,2.8529,2.8527,2.8529,2.8432,2.8418,2.8536,2.8536,2.8536,2.8536,2.8536,2.8536,2.8235,2.8291,2.829,2.8353,2.8362,2.8405,2.8419,2.8438,2.8452,2.8502,2.853,2.8534,2.8547,2.8579,2.8608,2.8609,2.8621,2.8642,2.8639,2.8549,2.8536,2.8524,2.851,2.8645,2.8645,2.8733,2.8734,2.8734]}]]